Location: Unspecified
(41.1850°N, 73.2650°W)
Time: 23:24:28
(UTC+00:00)

Cosmos 923 Rocket - Pass Details

Date: 14 December 2025
Orbit: 755 x 780 km, 74.0° (Epoch: 14 January)

Event Time Altitude Azimuth Distance (km) Brightness Sun altitude
Rises 23:27:19 0° 339° (NNW) 3,221 7.3 -22.2°
Reaches altitude 10° 23:29:42 10° 339° (NNW) 2,290 6.6 -22.6°
Maximum altitude 23:34:53 81° 252° (WSW) 769 4.0 -23.6°
Drops below altitude 10° 23:40:02 10° 166° (SSE) 2,273 6.4 -24.6°
Sets 23:42:23 0° 165° (SSE) 3,195 7.2 -25.0°
